Location: Unspecified
(0.0000°N, 0.0000°E)
Time: 21:05:40
(UTC+00:00)

Transit 4A - Pass Details

Date: 01 June 2022
Orbit: 864 x 980 km, 66.8° (Epoch: 26 June)

Event Time Altitude Azimuth Distance (km) Brightness Sun altitude
Rises 13:49:48 0° 309° (NW) 3,513 11.5 54.9°
Reaches altitude 10° 13:53:09 10° 291° (WNW) 2,554 10.9 54.3°
Maximum altitude 13:56:57 18° 250° (WSW) 2,044 10.2 53.5°
Drops below altitude 10° 14:00:43 10° 210° (SSW) 2,521 10.2 52.8°
Sets 14:04:02 0° 190° (S) 3,450 10.7 52.2°
